Regional Weather Roundup
Issued by NWS

Home | Current Version | Previous Version | Text Only | Print | Product List | Glossary On
Versions: 1 2 3 4 5 6 7 8 9 10 11 12 13 14 15 16 17 18 19 20 21 22 23 24 25 26 27 28 29 30 31 32 33 34 35 36 37 38 39 40 41 42 43 44 45 46 47 48 49 50
000
ASUS43 KMPX 100501
RWRMN
WEATHER ROUNDUP FOR MINNESOTA
NATIONAL WEATHER SERVICE TWIN CITIES/CHANHASSEN MN
1100 PM CST FRI DEC 09 2016


NOTE: "FAIR" INDICATES FEW OR NO CLOUDS BELOW 12,000 FEET WITH NO
SIGNIFICANT WEATHER AND/OR OBSTRUCTIONS TO VISIBILITY. N/A MEANS
CURRENT SKY AND/OR WEATHER CONDITIONS ARE NOT AVAILABLE.

MNZ060>063-068>070-100600-
   Twin Cities Metro

CITY           SKY/WX    TMP DP  RH WIND       PRES   REMARKS
TWIN CITIES    CLOUDY    12   3  67 NW9       30.51R WCI   0
ST PAUL        CLOUDY    12   5  73 NW12      30.52R WCI  -2
CRYSTAL        MOCLDY    10   0  63 W10       30.50R WCI  -4
BLAINE         CLOUDY    12   5  73 W9        30.49R WCI   0
LAKEVILLE      PTCLDY     7   3  85 W5        30.50S WCI  -2
EDEN PRAIRIE   CLOUDY    10   2  69 W9        30.50R WCI  -3
SOUTH ST PAUL  CLOUDY    13   4  68 W8        30.51R WCI   1
LAKE ELMO      CLOUDY    12   5  73 NW8       30.50R WCI   1
$$
MNZ001>005-007-008-013>017-022>024-027-028-100600-
   Northwest Minnesota

CITY           SKY/WX    TMP DP  RH WIND       PRES   REMARKS
BEMIDJI        CLOUDY    -1  -6  80 NW8       30.46S WCI -16
HALLOCK        CLOUDY    -2  -8  78 NW12      30.55S WCI -20
ROSEAU         CLEAR     -6  -9  84 W7        30.50R WCI -20
WARROAD        MOCLDY    -6  -9  84 W3        30.48S
THIEF RVR FALL FLURRIES  -9 -13  83 NW5       30.52S WCI -20
CROOKSTON      LGT SNOW  -9 -15  77 NW3       30.56S
FOSSTON        CLOUDY    -9 -13  84 W3        30.50R
DETROIT LAKES  LGT SNOW  -2  -6  84 NW5       30.49S WCI -12
MOORHEAD       CLOUDY    -6 -11  77 NW7       30.56S WCI -20
PARK RAPIDS    CLOUDY     2  -6  69 W7        30.45S WCI -11
$$
MNZ006-009>011-018-025>026-100600-
   North Central Minnesota

CITY           SKY/WX    TMP DP  RH WIND       PRES   REMARKS
BAUDETTE       CLEAR     -3  -8  79 W9        30.45R WCI -19
FLAG ISLAND    PTCLDY    -2  -8  78 NW13      30.45S WCI -21
INTL FALLS     CLOUDY    -4  -8  83 W7        30.43S WCI -18
WASKISH        CLOUDY     0  -6  78 W8        30.47R WCI -15
BIG FORK       CLOUDY     1  -4  78 NW6       30.44R WCI -10
LONGVILLE      CLOUDY     3  -2  78 NW5       30.45S WCI  -6
GRAND RAPIDS   FLURRIES   4  -2  76 NW10      30.45R WCI -11
CRANE LAKE     CLOUDY     0  -6  78 W5        30.45S HAZE    WCI -10
ORR            MOCLDY    -4  -9  77 CALM      30.40S
COOK           CLOUDY     0  -6  78 W8        30.43S WCI -15
$$
MNZ012-019>021-037-100600-
   Northeast Minnesota

CITY           SKY/WX    TMP DP  RH WIND       PRES   REMARKS
DULUTH         CLOUDY     7  -3  64 NW10      30.40R WCI  -8
ELY            CLOUDY     3  -2  78 W7        30.38S WCI  -9
HIBBING        CLOUDY     2  -4  76 NW8       30.42R WCI -12
EVELETH        FLURRIES   5  -3  69 NW10G16   30.42R WCI -10
DULUTH HARBOR  CLOUDY    10   0  61 W10       30.49R WCI  -3
TWO HARBORS    CLEAR      1  -6  71 CALM      30.41R
SILVER BAY     MOCLDY     5  -4  66 CALM      30.40R
GRAND MARAIS     N/A     11   2  67 NW6G20    30.41R WCI   1
G MARAIS ARPRT CLOUDY     3  -4  72 W3        30.30S
$$
MNZ029>031-032-039>041-046>048-054>057-064-100600-
   West Central Minnesota

CITY           SKY/WX    TMP DP  RH WIND       PRES   REMARKS
FERGUS FALLS   CLOUDY    -2  -8  78 NW9       30.58S WCI -18
WHEATON        CLEAR      0  -6  78 NW7       30.57S WCI -13
MORRIS         CLEAR      0  -6  78 NW7       30.52S WCI -13
ALEXANDRIA     CLEAR     -3  -7  82 NW6       30.49R WCI -15
ELBOW LAKE     FAIR      -3  -6  87 W9        30.52S WCI -19
WADENA         FLURRIES  -8  -9  92 CALM      30.47S
GLENWOOD       CLEAR     -4  -8  84 NW6       30.49F WCI -16
APPLETON       MOCLDY     3   0  85 NW6       30.54S WCI  -8
BENSON         CLEAR     -2  -6  84 N3        30.52F
ORTONVILLE     CLEAR      0  -6  78 CALM      30.53S
MADISON        PTCLDY     7   0  72 NW7       30.55R WCI  -5
WILLMAR        FAIR       3   0  85 CALM      30.52S
$$
MNZ033>034-036-042>043-049>051-058-059-100600-
   Central Minnesota

CITY           SKY/WX    TMP DP  RH WIND       PRES   REMARKS
ST CLOUD       CLEAR      4  -1  80 W8        30.50R WCI  -9
PAYNESVILLE    CLEAR      2  -2  83 W8        30.51R WCI -12
AITKIN         CLOUDY    10  -2  56 W5        30.44R WCI   2
PINE RIVER     CLOUDY     3  -2  78 W5        30.48S WCI  -6
BRAINERD       CLOUDY     5  -3  69 NW9       30.47R WCI  -9
LONG PRAIRIE   FAIR      -2  -6  84 SW6       30.49R WCI -14
LITTLE FALLS   CLEAR      3  -4  72 NW5       30.50R WCI  -6
LITCHFIELD     CLEAR      3   0  85 NW7       30.51S WCI  -9
BUFFALO        CLEAR      6   0  74 W9        30.53R WCI  -8
MAPLE LAKE     CLEAR      6   2  82 W6        30.52R WCI  -4
HUTCHINSON     PTCLDY     6   1  80 NW9       30.52S WCI  -8
$$
MNZ037-044-045-052-053-100600-
   East Central Minnesota

CITY           SKY/WX    TMP DP  RH WIND       PRES   REMARKS
PRINCETON      CLOUDY    10   1  67 W6        30.49R WCI   1
MORA           CLOUDY    12   3  67 W7        30.48R WCI   2
CAMBRIDGE      FLURRIES  12   1  62 W8        30.47R WCI   1
RUSH CITY      CLOUDY    12   7  79 W3        30.48R
MOOSE LAKE     CLOUDY    10   1  67 N5        30.44R WCI   2
HINCKLEY       CLOUDY    12   5  73 NW3       30.46R
CLOQUET        FLURRIES   7   0  72 W5        30.42S WCI  -2
MCGREGOR       CLOUDY     9   3  78 NW7       30.44S WCI  -3
$$
MNZ071>073-080-081-089-090-097-098-100600-
   Southwest Minnesota

CITY           SKY/WX    TMP DP  RH WIND       PRES   REMARKS
MONTEVIDEO     CLOUDY     3  -2  78 N5        30.56R WCI  -6
GRANITE FALLS  MOCLDY     7   2  80 NW7       30.55S WCI  -4
CANBY          CLOUDY     7   1  78 CALM      30.54S
MARSHALL       FLURRIES   6   1  80 NW7       30.53S WCI  -6
REDWOOD FALLS  CLOUDY     7  -1  70 NW7       30.53S WCI  -5
OLIVIA         PTCLDY     9   1  72 NW6       30.52S WCI  -1
PIPESTONE      FLURRIES   9   3  78 NE5       30.46R WCI   0
WINDOM         LGT SNOW   9   3  78 MISG      30.48F
WORTHINGTON    FLURRIES   8   4  83 N7        30.48R WCI  -3
JACKSON        FLURRIES  10   5  79 VRB7      30.48R WCI   0
TRACY          FLURRIES   8   4  85 N7        30.51S WCI  -4
SLAYTON        LGT SNOW   6   3  88 N7        30.47F WCI  -5
$$
MNZ065>067-074>077-082>085-091>093-100600-
   South Central Minnesota

CITY           SKY/WX    TMP DP  RH WIND       PRES   REMARKS
MANKATO        FLURRIES   9   4  80 NW9       30.52R WCI  -4
NEW ULM        CLOUDY     7   0  72 NW9       30.52S WCI  -7
ST JAMES       CLOUDY     9   5  85 NW9       30.53S WCI  -5
FAIRMONT       LGT SNOW  11   7  84 NW8       30.51S FOG     WCI  -1
GLENCOE        CLOUDY     8   3  82 NW9       30.51S WCI  -6
OWATONNA       MOCLDY    10   5  79 NW10      30.49S WCI  -3
WASECA         LGT SNOW  12   9  85 NW6       30.51S WCI   3
ALBERT LEA     FLURRIES  16  10  79 NW8       30.48S WCI   5
$$
MNZ078>079-086>088-094>096-100600-
   Southeast Minnesota

CITY           SKY/WX    TMP DP  RH WIND       PRES   REMARKS
ROCHESTER      LGT SNOW  11   8  88 NW10      30.47R FOG     WCI  -3
RED WING       MOCLDY    10   5  79 W8        30.50R WCI  -1
STANTON        CLOUDY    10   5  79 W6        30.50S WCI   1
DODGE CENTER   LGT SNOW   9   7  92 NW8       30.47R WCI  -4
WINONA         CLOUDY    16  10  79 NW7       30.51S WCI   6
AUSTIN         CLOUDY    12   9  85 NW8       30.48R WCI   1
PRESTON        CLOUDY    13   8  81 NW10      30.47S HAZE    WCI   0
$$
ABBREVIATIONS USED IN REMARKS
   TC - TEMPERATURES IN CELSIUS
  WCI - WIND CHILL INDEX
   HX - HEAT INDEX
  VSB - VISIBILITY
$$




USA.gov is the U.S. government's official web portal to all federal, state and local government web resources and services.